Regional Weather Roundup
Issued by NWS

Home | Current Version | Previous Version | Graphics & Text | Print | Product List | Glossary On
Versions: 1 2 3 4 5 6 7 8 9 10 11 12 13 14 15 16 17 18 19 20 21 22 23 24 25 26 27 28 29 30 31 32 33 34 35 36 37 38 39 40 41 42 43 44 45 46 47 48 49 50
000
ASUS45 KBOU 200607
RWRCO

WEATHER ROUNDUP FOR COLORADO
NATIONAL WEATHER SERVICE DENVER/BOULDER CO
1100 PM MST WED NOV 19 2014

NOTE: "FAIR" INDICATES FEW OR NO CLOUDS BELOW 12000 FEET WITH NO
SIGNIFICANT WEATHER AND/OR OBSTRUCTIONS TO VISIBILITY.

COZ001>005-013-030-031-200700-
...NORTHWEST COLORADO...

CITY           SKY/WX    TMP DP  RH WIND       PRES   REMARKS
CRAIG          CLEAR     18  13  80 CALM      30.13F
HAYDEN         CLEAR     21  12  68 SE3       30.12F
MEEKER         PTCLDY    27  16  63 CALM      30.14F
MOUNT WERNER   NOT AVBL
STEAMBOAT SPGS CLEAR     23  14  70 E3        30.13S
WALDEN         PTCLDY    25   9  50 SE7       30.08F WCI  17
$$

COZ006>008-011-200700-
...WEST CENTRAL VALLEYS...

CITY           SKY/WX    TMP DP  RH WIND       PRES   REMARKS
GRAND JUNCTION PTCLDY    25  12  58 E3        30.17S
MONTROSE       MOCLDY    25  16  68 SE7       30.19F WCI  17
EAGLE          PTCLDY    19  16  86 SE5       30.20R WCI  13
RIFLE          PTCLDY    22  15  75 SE3       30.19S
DELTA          CLEAR     28  14  55 NE6       30.19S WCI  22
NUCLA          PTCLDY    32  21  64 CALM      30.20S
$$

COZ017>023-064>068-200700-
...SOUTHWEST COLORADO...

CITY           SKY/WX    TMP DP  RH WIND       PRES   REMARKS
DURANGO        CLEAR     24  17  74 N6        30.17F WCI  17
CORTEZ         CLEAR     25  18  74 E6        30.18S WCI  18
PAGOSA SPRINGS CLEAR     25  15  66 CALM      30.19S
TELLURIDE      NOT AVBL
WOLF CREEK PAS PTCLDY    19   7  58 SW16      30.21S WCI   5
$$

COZ009-010-012-014-032>034-037-058>063-200700-
...CENTRAL COLORADO...

CITY           SKY/WX    TMP DP  RH WIND       PRES   REMARKS
ASPEN          PTCLDY    15   8  73 SW5       30.16F WCI   8
BUENA VISTA    MOCLDY    28   9  44 W5        30.11R WCI  23
COPPER MTN     PTCLDY    19  -4  35 SW5G16    30.18R WCI  13
BERTHOUD PASS  FAIR      12   9  85 NW31G39   30.11S WCI -10
COTTONWOOD PAS MOCLDY    32 -13  14 NW9G21    30.12R WCI  24
GUNNISON       MOCLDY    10   7  85 CALM      30.23S
KREMMLING      PTCLDY    19  12  73 CALM      30.16S
LEADVILLE      CLEAR     15  -1  49 NE10      30.14F WCI   2
MONARCH PASS   CLOUDY    18   0  45 W37       30.24S WCI  -4
SALIDA         MOCLDY    39   0  19 W3        30.17S
SUNLIGHT       PTCLDY    21   9  58 CALM      30.20S
WILKERSON PASS MOCLDY    27 -11  18 NW8       30.14S WCI  18
$$

COZ069>075-200700-
...SAN LUIS VALLEY/SANGRE DE CRISTO MOUNTAINS...

CITY           SKY/WX    TMP DP  RH WIND       PRES   REMARKS
ALAMOSA        MOCLDY    16  10  77 W6        30.15F WCI   7
LA VETA PASS   MOCLDY    21  10  63 S10G22    30.10S WCI  10
SAGUACHE       CLOUDY    25  10  54 NW8       30.16S WCI  16
$$

COZ035-036-038>040-200700-
...NORTHERN COLORADO FRONT RANGE...

CITY           SKY/WX    TMP DP  RH WIND       PRES   REMARKS
DENVER INTL AP PTCLDY    29  21  72 SW7       30.01F WCI  22
DMNS CITY PARK   N/A     28  24  83 SE3       30.01S
AURORA         PTCLDY    26  18  69 S7        30.02F WCI  19
FRONT RANGE AP PTCLDY    32  23  69 SW8       30.01F WCI  25
ERIE MUNI ARPT PTCLDY    21  19  93 CALM      30.02S
BOULDER MUN AP PTCLDY    30  21  69 SW3       30.01S
CENTENNIAL     PTCLDY    26  18  71 CALM      30.01S
BROOMFIELD     PTCLDY    32  21  64 CALM      30.01F
FORT COLLINS   CLEAR     27  19  74 NW3       30.03S
LONGMONT       CLEAR     25  19  78 W3        30.04S
$$

COZ041-046-047-076>085-087-088-200700-
...PIKES PEAK/PALMER DIVIDE AND SOUTHERN FOOTHILLS...

CITY           SKY/WX    TMP DP  RH WIND       PRES   REMARKS
COLO. SPRINGS  MOCLDY    28  18  66 N6        30.03F WCI  22
A. F. ACADEMY  MOCLDY    22  14  71 N5        30.03S WCI  15
ELLICOTT       MOCLDY    26  19  74 E5        30.02S WCI  20
FALCON         NOT AVBL
FORT CARSON    CLOUDY    28  20  70 N7        30.02S WCI  21
LIMON          PTCLDY    15  12  88 N7        30.03S WCI   5
MONUMENT HILL  PTCLDY    25  14  63 SW6       30.02S WCI  18
TRINIDAD       CLOUDY    32  18  56 W3        30.04R
$$

COZ042>045-048>051-090-091-200700-
...NORTHEAST COLORADO...

CITY           SKY/WX    TMP DP  RH WIND       PRES   REMARKS
GREELEY ARPT   CLEAR     21  12  68 NW3       30.03S
AKRON          PTCLDY    23  17  78 W7        30.01S WCI  15
BURLINGTON     CLEAR     28  18  66 S12       30.02F WCI  18
WRAY           PTCLDY    20  14  76 CALM      30.05S
STERLING       PTCLDY    23  19  86 N3        30.03S
HOLYOKE        PTCLDY    21  14  73 E5        30.05S WCI  15
FORT MORGAN    PTCLDY    23  15  71 NW3       30.02F
$$

COZ086-089-092>099-200700-
...SOUTHEAST COLORADO...

CITY           SKY/WX    TMP DP  RH WIND       PRES   REMARKS
PUEBLO         CLOUDY    31  24  75 W7        30.03F WCI  24
LA JUNTA       PTCLDY    26  23  88 NW8       30.02R WCI  18
LAMAR          MOCLDY    28  24  85 E9        30.02S WCI  19
SPRINGFIELD      N/A     32  23  69 SW8       30.02F WCI  25
$$



USA.gov is the U.S. government's official web portal to all federal, state and local government web resources and services.